KLM736 TNCC-EHAM

Flight info

Callsign KLM736
Flight time N/A
Altitude 35000
Route SCAPA1K SCAPA L335 OBIKE/M083F350 DCT 20N060W 26N050W/M083F370 31N040W 36N030W/M083F390 41N020W DCT PASAS DCT SEPAL UN470 LAPEX/N0468F390 DCT OZNOH/N0474F400 DCT ROGPU DCT TADUP DCT PODEM UN873 BAZOS DCT BELDI DCT VEKIN DCT ADUTO N873 FERDI Y18 DENUT
Aircraft B772/H-SDE2E3FGHIJ5LORVWXY/LB1D1

Departure

Time 2026-04-22 22:37
Airport Hato International Airport (TNCC)

Arrival

Time N/A
Airport Amsterdam Airport Schiphol (EHAM)
Time Latitude Longitude Altitude Speed Heading
2026-04-22 22:10 12.18571 -68.95727 59 ft 0 kts 191°
2026-04-22 22:25 12.18577 -68.95726 58 ft 2 kts 191°
2026-04-22 22:25 12.18591 -68.95723 57 ft 2 kts 191°
2026-04-22 22:26 12.18606 -68.95720 57 ft 2 kts 191°
2026-04-22 22:26 12.18621 -68.95716 56 ft 2 kts 200°
2026-04-22 22:26 12.18634 -68.95709 55 ft 2 kts 224°
2026-04-22 22:26 12.18644 -68.95697 54 ft 2 kts 243°
2026-04-22 22:27 12.18649 -68.95682 53 ft 2 kts 262°
2026-04-22 22:27 12.18649 -68.95668 53 ft 0 kts 280°
2026-04-22 22:27 12.18648 -68.95663 53 ft 0 kts 282°
2026-04-22 22:29 12.18650 -68.95670 53 ft 3 kts 282°
2026-04-22 22:29 12.18660 -68.95721 53 ft 11 kts 281°
2026-04-22 22:30 12.18680 -68.95819 55 ft 17 kts 282°
2026-04-22 22:30 12.18708 -68.95956 56 ft 21 kts 281°
2026-04-22 22:30 12.18740 -68.96105 56 ft 21 kts 282°
2026-04-22 22:30 12.18768 -68.96238 57 ft 18 kts 282°
2026-04-22 22:31 12.18794 -68.96362 58 ft 17 kts 282°
2026-04-22 22:31 12.18821 -68.96490 56 ft 18 kts 283°
2026-04-22 22:31 12.18849 -68.96620 57 ft 18 kts 281°
2026-04-22 22:31 12.18876 -68.96748 56 ft 18 kts 282°
2026-04-22 22:32 12.18903 -68.96882 55 ft 19 kts 281°
2026-04-22 22:32 12.18932 -68.97015 55 ft 19 kts 285°
2026-04-22 22:32 12.18960 -68.97154 54 ft 19 kts 280°
2026-04-22 22:32 12.18987 -68.97288 55 ft 19 kts 281°
2026-04-22 22:33 12.19013 -68.97427 55 ft 20 kts 282°
2026-04-22 22:33 12.19042 -68.97545 54 ft 13 kts 284°
2026-04-22 22:33 12.19101 -68.97592 53 ft 13 kts 13°
2026-04-22 22:33 12.19197 -68.97555 49 ft 10 kts 43°
2026-04-22 22:34 12.19208 -68.97476 48 ft 11 kts 96°
2026-04-22 22:34 12.19202 -68.97442 48 ft 0 kts 102°
2026-04-22 22:36 12.19202 -68.97440 48 ft 3 kts 102°
2026-04-22 22:36 12.19158 -68.97236 48 ft 60 kts 101°
2026-04-22 22:36 12.19028 -68.96610 49 ft 117 kts 102°
2026-04-22 22:37 12.18821 -68.95634 50 ft 163 kts 101°
2026-04-22 22:37 12.18568 -68.94459 392 ft 169 kts 101°
2026-04-22 22:37 12.18319 -68.93269 868 ft 175 kts 100°
2026-04-22 22:37 12.18067 -68.92062 1416 ft 177 kts 99°
2026-04-22 22:38 12.17798 -68.90774 1600 ft 196 kts 99°
2026-04-22 22:38 12.17506 -68.89333 1826 ft 214 kts 95°
2026-04-22 22:38 12.17657 -68.87771 1989 ft 233 kts 70°
2026-04-22 22:38 12.18534 -68.86331 2302 ft 248 kts 44°
2026-04-22 22:39 12.20039 -68.85429 2900 ft 254 kts 21°
2026-04-22 22:39 12.21737 -68.84894 3467 ft 258 kts 18°
2026-04-22 22:39 12.23467 -68.84379 4029 ft 262 kts 18°
2026-04-22 22:39 12.25239 -68.83852 4630 ft 264 kts 17°
2026-04-22 22:40 12.27012 -68.83325 5176 ft 268 kts 17°
2026-04-22 22:40 12.28805 -68.82793 5743 ft 271 kts 17°
2026-04-22 22:40 12.30647 -68.82246 6268 ft 275 kts 16°
2026-04-22 22:40 12.32486 -68.81699 6830 ft 277 kts 16°
2026-04-22 22:41 12.34334 -68.81151 7425 ft 277 kts 16°
2026-04-22 22:41 12.36206 -68.80595 8000 ft 279 kts 16°
2026-04-22 22:41 12.38063 -68.80042 8476 ft 282 kts 16°
2026-04-22 22:41 12.39975 -68.79475 9028 ft 284 kts 15°
2026-04-22 22:42 12.41874 -68.78909 9570 ft 285 kts 15°
2026-04-22 22:42 12.43780 -68.78343 10071 ft 288 kts 15°
2026-04-22 22:42 12.45776 -68.77750 10278 ft 304 kts 15°
2026-04-22 22:42 12.47871 -68.77127 10443 ft 320 kts 15°
2026-04-22 22:43 12.50073 -68.76472 10593 ft 337 kts 15°
2026-04-22 22:43 12.52370 -68.75789 10725 ft 352 kts 16°
2026-04-22 22:43 12.54789 -68.75069 10839 ft 368 kts 16°
2026-04-22 22:43 12.57295 -68.74322 11150 ft 376 kts 16°
2026-04-22 22:44 12.59825 -68.73568 11618 ft 379 kts 16°
2026-04-22 22:44 12.62373 -68.72807 12147 ft 380 kts 16°
2026-04-22 22:44 12.64897 -68.72053 12670 ft 382 kts 16°
2026-04-22 22:44 12.67456 -68.71251 13133 ft 386 kts 19°
2026-04-22 22:45 12.70008 -68.70279 13618 ft 389 kts 20°
2026-04-22 22:45 12.72535 -68.69303 14070 ft 394 kts 20°
2026-04-22 22:45 12.75114 -68.68313 14562 ft 397 kts 20°
2026-04-22 22:45 12.77750 -68.67305 15071 ft 400 kts 20°
2026-04-22 22:46 12.80341 -68.66318 15576 ft 403 kts 19°
2026-04-22 22:46 12.83000 -68.65308 16034 ft 407 kts 19°
2026-04-22 22:46 12.85683 -68.64288 16488 ft 411 kts 19°
2026-04-22 22:46 12.88389 -68.63261 16969 ft 414 kts 19°
2026-04-22 22:47 12.91075 -68.62243 17450 ft 417 kts 19°
2026-04-22 22:47 12.93830 -68.61198 17887 ft 421 kts 19°
2026-04-22 22:47 12.96586 -68.60153 18338 ft 425 kts 19°
2026-04-22 22:47 12.99408 -68.59084 18798 ft 428 kts 19°
2026-04-22 22:48 13.02216 -68.58019 19264 ft 431 kts 19°
2026-04-22 22:48 13.05023 -68.56954 19728 ft 434 kts 19°
2026-04-22 22:48 13.07870 -68.55874 20177 ft 437 kts 19°
2026-04-22 22:48 13.10768 -68.54775 20606 ft 440 kts 19°
2026-04-22 22:49 13.13629 -68.53689 21050 ft 443 kts 19°
2026-04-22 22:49 13.16545 -68.52582 21500 ft 445 kts 19°
2026-04-22 22:49 13.19468 -68.51472 21927 ft 448 kts 19°
2026-04-22 22:49 13.22412 -68.50354 22357 ft 451 kts 18°
2026-04-22 22:50 13.25333 -68.49245 22760 ft 454 kts 18°
2026-04-22 22:50 13.28310 -68.48114 23139 ft 457 kts 18°
2026-04-22 22:50 13.31315 -68.46972 23524 ft 461 kts 18°
2026-04-22 22:50 13.34353 -68.45817 23914 ft 464 kts 18°
2026-04-22 22:51 13.37403 -68.44657 24295 ft 467 kts 18°
2026-04-22 22:51 13.40472 -68.43490 24656 ft 470 kts 18°
2026-04-22 22:51 13.43515 -68.42332 25024 ft 472 kts 18°
2026-04-22 22:51 13.46644 -68.41142 25368 ft 475 kts 18°
2026-04-22 22:52 13.49723 -68.39970 25693 ft 478 kts 18°
2026-04-22 22:52 13.52859 -68.38775 26012 ft 481 kts 18°
2026-04-22 22:52 13.56016 -68.37573 26332 ft 484 kts 18°
2026-04-22 22:52 13.59184 -68.36366 26653 ft 486 kts 18°
2026-04-22 22:53 13.62383 -68.35147 26940 ft 489 kts 18°
2026-04-22 22:53 13.65608 -68.33917 27215 ft 492 kts 18°
2026-04-22 22:53 13.68791 -68.32704 27448 ft 495 kts 18°
2026-04-22 22:53 13.72053 -68.31460 27715 ft 497 kts 18°
2026-04-22 22:54 13.75320 -68.30213 28002 ft 499 kts 17°
2026-04-22 22:54 13.78552 -68.28979 28263 ft 501 kts 17°
2026-04-22 22:54 13.81846 -68.27722 28518 ft 503 kts 17°
2026-04-22 22:54 13.85153 -68.26459 28763 ft 505 kts 17°
2026-04-22 22:55 13.88434 -68.25206 28998 ft 508 kts 18°
2026-04-22 22:55 13.91781 -68.23927 29233 ft 510 kts 18°
2026-04-22 22:55 13.98482 -68.21365 29720 ft 515 kts 18°
2026-04-22 22:56 14.01817 -68.20090 30050 ft 514 kts 18°
2026-04-22 22:56 14.05185 -68.18800 30432 ft 513 kts 18°
2026-04-22 22:56 14.08544 -68.17515 30798 ft 513 kts 18°
2026-04-22 22:56 14.11899 -68.16230 31102 ft 513 kts 18°
2026-04-22 22:57 14.15263 -68.14941 31409 ft 513 kts 18°
2026-04-22 22:57 14.18586 -68.13669 31743 ft 513 kts 18°
2026-04-22 22:57 14.21925 -68.12389 32010 ft 513 kts 18°
2026-04-22 22:57 14.25290 -68.11099 32304 ft 514 kts 18°
2026-04-22 22:58 14.28652 -68.09810 32623 ft 513 kts 18°
2026-04-22 22:58 14.32010 -68.08521 32960 ft 513 kts 18°
2026-04-22 22:58 14.35366 -68.07234 33303 ft 513 kts 18°
2026-04-22 22:58 14.38686 -68.05960 33641 ft 513 kts 18°
2026-04-22 22:59 14.42042 -68.04672 34011 ft 512 kts 18°
2026-04-22 22:59 14.45410 -68.03378 34417 ft 510 kts 18°
2026-04-22 22:59 14.48762 -68.02090 34799 ft 509 kts 18°
2026-04-22 22:59 14.52081 -68.00814 34949 ft 512 kts 18°